Regional Weather Roundup
Issued by NWS

Home | Current Version | Previous Version | Text Only | Print | Product List | Glossary Off
Versions: 1 2 3 4 5 6 7 8 9 10 11 12 13 14 15 16 17 18 19 20 21 22 23 24 25 26 27 28 29 30 31 32 33 34 35 36 37 38 39 40 41 42 43 44 45 46 47 48 49 50

000
ASUS45 KPSR 010810
RWRAZ

ARIZONA HOURLY REGIONAL WEATHER ROUNDUP
NATIONAL WEATHER SERVICE PHOENIX AZ
100 AM MST TUE SEP 01 2015

NOTE: FAIR INDICATES FEW OR NO CLOUDS BELOW 12,000 FEET WITH NO
SIGNIFICANT WEATHER AND/OR OBSTRUCTIONS TO VISIBILITY.

AZZ001>003-036-010900-
NORTHWEST ARIZONA

CITY           SKY/WX    TMP DP  RH WIND       PRES   REMARKS
BULLHEAD CITY  CLEAR     95  39  14 S15       29.76S
KINGMAN        CLEAR     79  50  36 S9        29.99R
$$

AZZ004>008-015-016-018-010900-
NORTH CENTRAL ARIZONA

CITY           SKY/WX    TMP DP  RH WIND       PRES   REMARKS
GRAND CANYON   PTCLDY    56  54  93 CALM        N/A
WILLIAMS       PTCLDY    61  50  67 SE14G21   30.32F
PRESCOTT       MOCLDY    69  56  62 SE9       30.17S
FLAGSTAFF      PTCLDY    52  51  97 SW6       30.32S
PAYSON         CLOUDY    63  59  88 E7        30.26S
PAGE           CLEAR     72  53  51 S13       30.09S
$$

AZZ009>014-017-010900-
NORTHEAST ARIZONA

CITY           SKY/WX    TMP DP  RH WIND       PRES   REMARKS
WINSLOW        CLOUDY    63  58  83 SW3       30.19R
SAINT JOHNS    CLOUDY    64  55  72 S6        30.21F
WINDOW ROCK    CLOUDY    58  51  78 CALM      30.29F
SHOW LOW       CLOUDY    55  52  88 SW14      30.29F
$$

AZZ023-010900-
GREATER PHOENIX AREA

CITY           SKY/WX    TMP DP  RH WIND       PRES   REMARKS
PHOENIX          N/A    N/A N/A N/A MISG      29.93S
LUKE AFB       PTCLDY    81  68  63 SE10      29.93S
DEER VALLEY    MOCLDY    84  60  44 E12       29.94S
SCOTTSDALE     MOCLDY    83  61  47 SE6       29.95F
MESA-GATEWAY   CLOUDY    77  64  65 SE15      29.97F THUNDER
$$

AZZ027-028-010900-
SOUTHWEST MARICOPA COUNTY AND PINAL COUNTY

CITY           SKY/WX    TMP DP  RH WIND       PRES   REMARKS
CASA GRANDE    MOCLDY    73  66  78 E14       29.95S
GILA BEND      FAIR      85  65  52 E16G22    29.88R
$$

AZZ503-504-507>509-010900-
SOUTHEAST ARIZONA

CITY           SKY/WX    TMP DP  RH WIND       PRES   REMARKS
TUCSON         TSTM      72  68  87 E10       30.08R
DAVIS-MONTHAN  TSTM      70  66  88 NE17G24   30.06F FOG
NOGALES        MOCLDY    68  61  78 CALM      30.11F
SIERRA VISTA   MOCLDY    68  56  66 VRB2      30.19S
DOUGLAS        PTCLDY    67  58  72 N12       30.14S
SAFFORD        LGT RAIN  68  66  93 NW20      30.08
$$

AZZ020-021-025-026-031-010900-
SOUTHWEST ARIZONA

CITY           SKY/WX    TMP DP  RH WIND       PRES   REMARKS
YUMA           CLEAR     88  75  65 SE16      29.76S
$$

CAZ031-033-041-043-047-048-061-010900-
SOUTHERN CALIFORNIA

CITY           SKY/WX    TMP DP  RH WIND       PRES   REMARKS
DOWNTOWN L.A.  CLOUDY    72  63  73 CALM      29.91R
L.A. AIRPORT   MOCLDY    71  64  78 CALM      29.91S
SAN DIEGO      CLOUDY    70  61  73 S8        29.94R
BURBANK        CLOUDY    70  62  76 S3        29.92S
ONTARIO        MOCLDY    66  61  84 W7        29.93S
RIVERSIDE      CLEAR     67  61  81 W5        29.93S
PALM SPRINGS   CLEAR     82  44  26 S3        29.78R
EL CENTRO NAS  CLEAR     87  33  14 CALM      29.76S
IMPERIAL       CLEAR     90  31  12 N5        29.74S
BLYTHE         CLEAR     87  67  51 S14       29.78S
NEEDLES        CLEAR     93  31  11 W12       29.77R
$$

NVZ020-UTZ003-010900-
SOUTHERN NEVADA-UTAH

CITY           SKY/WX    TMP DP  RH WIND       PRES   REMARKS
LAS VEGAS      CLEAR     86  33  15 S7        29.81R
SALT LAKE CITY MOCLDY    73  44  35 S8        29.96S
$$

NMZ009-TXZ055-010900-
NEW MEXICO-WEST TEXAS

CITY           SKY/WX    TMP DP  RH WIND       PRES   REMARKS
ALBUQUERQUE    CLOUDY    72  48  42 S6        30.17F
EL PASO        PTCLDY    78  45  30 SE7       30.02S
$$


........................KEY........................
SKY/WX - SKY CONDITION/WEATHER
TMP    - TEMPERATURE IN FAHRENHEIT
DP     - DEW POINT IN FAHRENHEIT
RH     - RELATIVE HUMIDITY IN PERCENT
WIND   - DIRECTION AND SPEED IN MILES PER HOUR (MPH)
VRB    - VARIABLE WIND DIRECTION
PRES   - MEAN SEA LEVEL PRESSURE IN INCHES OF MERCURY
         F - FALLING PRESSURE   R - RISING PRESSURE
         S - STEADY PRESSURE
VSB    - VISIBILITY IN MILES
HX     - HEAT INDEX IN FAHRENHEIT
WCI    - WIND CHILL INDEX IN FAHRENHEIT
TC     - TEMPERATURE IN CELSIUS WHICH IS ALSO KNOWN AS
         TEMPERATURE IN CENTIGRADE
AFB    - AIR FORCE BASE
         LUKE AFB IS LUKE AIR FORCE BASE
         DAVIS-MONTHAN IS DAVIS-MONTHAN AIR FORCE BASE
NAS    - NAVAL AIR STATION
         EL CENTRO NAS IS EL CENTRO NAVAL AIR STATION
N/A    - NOT AVAILABLE



USA.gov is the U.S. government's official web portal to all federal, state and local government web resources and services.